Location: Lombard
(41.8800°N, 88.0080°W)
Time: 04:37:23
(UTC-05:00)

Vanguard 2 Rocket - Pass Details

Date: 25 February 2024
Orbit: 555 x 3307 km, 32.9° (Epoch: 12 April)

Event Time Altitude Azimuth Distance (km) Brightness Sun altitude
Rises 18:20:43 0° 273° (W) 5,500 13.2 -8.9°
Reaches altitude 10° 18:23:58 10° 268° (W) 4,816 12.3 -9.5°
Maximum altitude 18:38:04 50° 199° (SSW) 3,543 10.0 -12.1°
Drops below altitude 10° 18:56:52 10° 132° (SE) 6,241 10.7 -15.6°
Enters shadow 19:00:25 - 129° (SE) 6,909 10.9 -16.3°
Sets 19:01:51 0° 128° (SE) 7,176 - -16.5°
